Ottumwa, IA

5:16 PM CDT on March 25, 2017 (GMT -0500)
Ottumwa Industrial

Weather History for KOTM - March, 2013

Change the Weather History Date:

Wednesday, March 6, 2013

  Actual Average Record
Temperature  
Mean Temperature 24 °F 35 °F  
Max Temperature 29 °F 44 °F 74 °F (2017)
Min Temperature 19 °F 25 °F -11 °F (1960)
Degree Days  
Heating Degree Days 41 30  
Month to date heating degree days 240 189  
Since 1 July heating degree days 4767 5074  
Cooling Degree Days 0 0  
Month to date cooling degree days 0 0  
Year to date cooling degree days 0 0  
Moisture  
Dew Point 18 °F    
Average Humidity 76    
Maximum Humidity 84    
Minimum Humidity 68    
Precipitation  
Precipitation 0.00 in 0.06 in 1.10 in (1959)
Month to date precipitation 0.15 0.40  
Year to date precipitation 3.48 2.58  
Sea Level Pressure  
Sea Level Pressure 30.36 in    
Wind  
Wind Speed 13 mph (NNW)    
Max Wind Speed 23 mph    
Max Gust Speed 28 mph    
Visibility 10 miles    
Events      
T = Trace of Precipitation, MM = Missing Value Source: NWS Daily Summary

Daily Weather History Graph

Daily Weather History Graph

Search for Another Location

Airport or City:

Trip Planner

Search our weather history database for the weather conditions in past years. The results will help you decide how hot, cold, wet, or windy it might be!

Date:

Astronomy

Mar. 06, 2013 Rise Set
Actual Time 6:35 AM CST 6:06 PM CST
Civil Twilight 6:08 AM CST 6:34 PM CST
Nautical Twilight 5:36 AM CST 7:06 PM CST
Astronomical Twilight 5:04 AM CST 7:38 PM CST
Moon 2:47 AM CST (3/6) 12:47 PM CST (3/6)
Length of Visible Light 12h 26m
Length of Day
11h 31m
Waning Crescent, 29% of the Moon is Illuminated
Mar 6
Waning Crescent
Mar 11
New
Mar 19
First Quarter
Mar 27
Full
Apr 2
Last Quarter

Hourly Weather History & Observations

Time (CST) Temp. Windchill Dew Point Humidity Pressure Visibility Wind Dir Wind Speed Gust Speed Precip Events Conditions
12:24 AM 26.6 °F 13.4 °F 21.2 °F 80% 30.24 in 10.0 mi NW 18.4 mph - N/A   Overcast
12:36 AM 26.6 °F 13.4 °F 21.2 °F 80% 30.24 in 10.0 mi NW 18.4 mph - N/A   Overcast
12:53 AM 26.1 °F 12.3 °F 21.9 °F 84% 30.27 in 10.0 mi NW 19.6 mph - N/A   Overcast
1:12 AM 26.6 °F 12.7 °F 21.2 °F 80% 30.25 in 10.0 mi NW 20.7 mph 26.5 mph N/A   Overcast
1:53 AM 27.0 °F 14.7 °F 21.9 °F 81% 30.29 in 10.0 mi NNW 16.1 mph - N/A   Overcast
2:53 AM 26.1 °F 13.1 °F 21.0 °F 81% 30.31 in 10.0 mi NW 17.3 mph - N/A   Overcast
3:53 AM 26.1 °F 14.0 °F 19.9 °F 78% 30.33 in 10.0 mi NW 15.0 mph - N/A   Overcast
4:53 AM 25.0 °F 12.6 °F 19.9 °F 81% 30.35 in 10.0 mi NW 15.0 mph - N/A   Overcast
5:53 AM 25.0 °F 12.2 °F 19.0 °F 78% 30.36 in 10.0 mi NW 16.1 mph - N/A   Overcast
6:53 AM 24.1 °F 9.4 °F 19.0 °F 81% 30.38 in 10.0 mi NW 20.7 mph - N/A   Overcast
7:20 AM 23.0 °F 7.6 °F 17.6 °F 80% 30.36 in 10.0 mi NNW 21.9 mph - N/A   Overcast
7:53 AM 21.9 °F 6.9 °F 17.1 °F 82% 30.41 in 10.0 mi NW 19.6 mph - N/A   Overcast
8:49 AM 24.8 °F 11.1 °F 17.6 °F 74% 30.37 in 10.0 mi NNW 18.4 mph - N/A   Overcast
8:53 AM 24.1 °F 9.8 °F 18.0 °F 77% 30.41 in 10.0 mi NNW 19.6 mph - N/A   Mostly Cloudy
9:12 AM 24.8 °F 11.9 °F 17.6 °F 74% 30.37 in 10.0 mi NNW 16.1 mph - N/A   Partly Cloudy
9:53 AM 24.1 °F 10.1 °F 17.1 °F 75% 30.42 in 10.0 mi NNW 18.4 mph - N/A   Clear
10:53 AM 26.1 °F 12.7 °F 17.1 °F 69% 30.42 in 10.0 mi NNW 18.4 mph - N/A   Partly Cloudy
11:13 AM 26.6 °F 13.1 °F 17.6 °F 69% 30.38 in 10.0 mi NNW 19.6 mph - N/A   Mostly Cloudy
11:53 AM 26.1 °F 14.0 °F 18.0 °F 71% 30.43 in 10.0 mi NNW 15.0 mph - N/A   Overcast
12:53 PM 28.0 °F 18.1 °F 19.0 °F 69% 30.40 in 10.0 mi NNW 11.5 mph - N/A   Mostly Cloudy
1:53 PM 28.0 °F 17.0 °F 19.0 °F 69% 30.39 in 10.0 mi NNW 13.8 mph - N/A   Mostly Cloudy
2:53 PM 28.0 °F 18.1 °F 19.9 °F 72% 30.39 in 10.0 mi North 11.5 mph - N/A   Overcast
3:53 PM 28.4 °F 19.1 °F 19.4 °F 69% 30.35 in 10.0 mi North 10.4 mph - N/A   Overcast
4:53 PM 27.0 °F 18.7 °F 19.0 °F 72% 30.39 in 10.0 mi North 8.1 mph - N/A   Overcast
5:53 PM 25.0 °F 15.5 °F 18.0 °F 75% 30.39 in 10.0 mi NNW 9.2 mph - N/A   Mostly Cloudy
6:46 PM 24.8 °F 17.9 °F 17.6 °F 74% 30.35 in 10.0 mi North 5.8 mph - N/A   Scattered Clouds
6:53 PM 23.0 °F 13.9 °F 17.1 °F 78% 30.38 in 10.0 mi North 8.1 mph - N/A   Partly Cloudy
7:53 PM 21.9 °F 13.4 °F 16.0 °F 78% 30.38 in 10.0 mi North 6.9 mph - N/A   Partly Cloudy
8:53 PM 21.9 °F 15.7 °F 16.0 °F 78% 30.37 in 10.0 mi North 4.6 mph - N/A   Clear
9:53 PM 21.0 °F 13.4 °F 16.0 °F 81% 30.38 in 10.0 mi NE 5.8 mph - N/A   Clear
10:53 PM 19.9 °F 12.1 °F 15.1 °F 81% 30.38 in 10.0 mi NE 5.8 mph - N/A   Clear
11:43 PM 19.4 °F 12.8 °F 15.8 °F 86% 30.34 in 10.0 mi NNE 4.6 mph - N/A   Mostly Cloudy
11:53 PM 19.0 °F 12.3 °F 15.1 °F 85% 30.37 in 10.0 mi NE 4.6 mph - N/A   Mostly Cloudy